Regional Weather Roundup
Issued by NWS Wilmington, NC

Home | Current Version | Previous Version | Text Only | Print | Product List | Glossary On
Versions: 1 2 3 4 5 6 7 8 9 10 11 12 13 14 15 16 17 18 19 20 21 22 23 24 25 26 27 28 29 30 31 32 33 34 35 36 37 38 39 40 41 42 43 44 45 46 47 48 49 50
000
ASUS42 KILM 241413
RWRILM
RWRILM
REGIONAL HOURLY WEATHER ROUNDUP
NATIONAL WEATHER SERVICE WILMINGTON NC
1000 AM EDT TUE MAY 24 2016

NOTE: "FAIR" INDICATES FEW OR NO CLOUDS BELOW 12,000 FEET WITH NO
SIGNIFICANT WEATHER AND/OR OBSTRUCTIONS TO VISIBILITY.

...............WFO WILMINGTON COUNTY WARNING AREA...............

......COASTAL NC AND SC COUNTIES......

CITY           SKY/WX    TMP DP  RH WIND       PRES   REMARKS
WILMINGTON     SUNNY     70  53  54 W7        30.14S
N MYRTLE BEACH SUNNY     72  53  51 NW5       30.15S
MYRTLE BEACH   SUNNY     72  52  49 VRB5      30.17

......INLAND NC AND SC COUNTIES.......

CITY           SKY/WX    TMP DP  RH WIND       PRES   REMARKS
LUMBERTON      SUNNY     72  54  53 SW8       30.15R
ELIZABETHTOWN  SUNNY     68  55  62 SW7       30.16R
WHITEVILLE     SUNNY     68  54  60 W6        30.16R
FLORENCE       SUNNY     72  52  49 W5        30.16S
DARLINGTON     SUNNY     70  55  59 W7        30.17R
KINGSTREE      FAIR      70  52  52 SW6       30.17S
HARTSVILLE     FAIR      68  52  56 SW6       30.16F
BENNETTSVILLE  FAIR      72  55  56 CALM      30.16S
CONWAY         FAIR      70  54  56 CALM      30.16R
GEORGETOWN     FAIR      70  52  52 SW3       30.17S
MARION         FAIR      68  54  60 CALM      30.16S

....................REST OF NORTH CAROLINA......................

.........EASTERN NC.........

CITY           SKY/WX    TMP DP  RH WIND       PRES   REMARKS
CAPE HATTERAS  SUNNY     69  57  65 W10       30.09S
JACKSONVILLE   SUNNY     70  57  63 W8        30.13F
MOREHEAD CITY  SUNNY     70  53  54 NW13      30.12S
KENANSVILLE    SUNNY     69  53  57 CALM      30.14S
NEW BERN       SUNNY     70  55  59 W10       30.14R
ELIZABETH CITY MOSUNNY   67  57  70 SW10      30.05F

.........CENTRAL NC.........

CITY           SKY/WX    TMP DP  RH WIND       PRES   REMARKS
RALEIGH DURHAM MOSUNNY   69  57  65 W5        30.12S
ROCKY MOUNT    SUNNY     69  56  62 W8        30.10S
ROANOKE RAPIDS NOT AVBL
FAYETTEVILLE   SUNNY     71  52  50 W10       30.13S
HOFFMAN        NOT AVBL

.........WESTERN NC.........

CITY           SKY/WX    TMP DP  RH WIND       PRES   REMARKS
CHARLOTTE      MOSUNNY   69  53  56 W7        30.17S
GREENSBORO     SUNNY     71  52  50 W9        30.14R
HICKORY        NOT AVBL
BOONE          NOT AVBL
ASHEVILLE      NOT AVBL

.....................REST OF SOUTH CAROLINA.....................

.........EASTERN SC.........

CITY           SKY/WX    TMP DP  RH WIND       PRES   REMARKS
CHARLESTON     MOSUNNY   74  52  46 CALM      30.16S
BEAUFORT MCAS  MOSUNNY   74  58  57 E6        30.16R
HILTON HEAD    SUNNY     77  63  61 NE6       30.17

.........CENTRAL SC.........

CITY           SKY/WX    TMP DP  RH WIND       PRES   REMARKS
COLUMBIA       MOSUNNY   74  57  55 VRB3      30.16S
ORANGEBURG     PTSUNNY   74  52  46 CALM      30.17R
SUMTER SHAW    NOT AVBL

.........WESTERN SC.........

CITY           SKY/WX    TMP DP  RH WIND       PRES   REMARKS
GREENVILLE     NOT AVBL
ROCK HILL      SUNNY     68  53  58 W8        30.19R
ANDERSON       SUNNY     70  53  54 CALM      30.18S
CLEMSON        NOT AVBL
GREENWOOD      SUNNY     71  54  54 S3        30.19R


...................COASTAL AND OFFSHORE REPORTS..................

................LOCAL PIERS AND NC RESERVE................


STATION/POSITION TIME  SKY/WX   TEMP    WIND        PRES    VSBY
                                AIR SEA DIR/SP/G
                 (UTC)          (F)     (DEG/KT/KT) (MB)    (MI)
JOHNY MRCER PIER 1300            67 72  310/  7/  8 1019.4R
NC RESRV MASNBRO NOT AVBL
OCEAN CREST PIER NOT AVBL
SPRINGMAID  PIER NOT AVBL


................COASTAL AND OFFSHORE BUOYS................


STATION/POSITION TIME  SKY/WX   TEMP    WIND        PRES    VSBY
                                AIR SEA DIR/SP/G
                 (UTC)          (F)     (DEG/KT/KT) (MB)    (MI)
DIMNDSHOAL 41025 1350            65 68  280/ 12/ 16 1018.9R
WVE H/P(F/S)=  4/ 9 SWL H/P/D(F/S/D)=  3/ 80/ 9

CAPE LOOKOUT     1400            68     290/ 10/ 13 1019.7R
ONSLOW BAY 41036 NOT AVBL
ONSLOW BAY 41064 1308            70 73  300/  8/ 12 1020.1R
ONSLOW BAY 41159 1325               73                N/A
WVE H/P(F/S)=  2/ 9

5SE WRITBC 41038 1308            66 71  300/  8/ 12 1021.1R
MASNBO INL 41110 1306               72                N/A
WVE H/P(F/S)=  2/ 8

WILM HARBR 41108 1326               72                N/A
WVE H/P(F/S)=  2/ 9

27SE WRITB 41037 1308            68 72  300/  8/ 12 1019.5R
FRYING PAN 41013 1300            69 76  320/  8/ 10 1020.5R
SUNST NRSH 41024 1308            66 72  310/  6/  8 1020.4R
CAPRS NRSH 41029 1308            71 74   90/  2/  4 1021.1R
EDISTO     41004 1350            71 75  350/  4/  6 1021.0R
WVE H/P(F/S)=  2/ 8 SWL H/P/D(F/S/D)=  2/ 8



..........OFFSHORE BUOYS BEYOND 100 NM OFFSHORE...........
.....IN A TRIANGLE---HAT TO BERMUDA TO BAHAMAS TO HAT.....


STATION/POSITION TIME  SKY/WX   TEMP    WIND        PRES    VSBY
                                AIR SEA DIR/SP/G
                 (UTC)          (F)     (DEG/KT/KT) (MB)    (MI)
150E HAT   41001 NOT AVBL
W BERMUDA  41048 1350            74 76  230/  2/  4 1019.1R
WVE H/P(F/S)=  5/ 8 SWL H/P/D(F/S/D)=  5/110/ 8

ATLANTIC S 41049 1350            78 78  160/ 14/ 17 1023.1F
WVE H/P(F/S)=  5/ 6 SWL H/P/D(F/S/D)=  3/110/ 8

E BAHAMAS  41046 1400            81 81  140/ 14/ 17 1019.9F
NE BAHAMAS 41047 1400            76 79  110/  4/  6 1019.3F
120E CANVRL41010 1320            77 78   60/  6/  8 1019.9R

END



USA.gov is the U.S. government's official web portal to all federal, state and local government web resources and services.